DEOSL EDDG-ZZZZ

Flight info

Callsign DEOSL
Flight time N/A
Altitude
Route
Aircraft C152

Departure

Time 2026-04-26 18:35
Airport Münster Osnabrück Airport (EDDG)

Arrival

Time N/A
Airport ZZZZ
Time Latitude Longitude Altitude Speed Heading
2026-04-26 18:21 52.13157 7.68228 162 ft 0 kts 275°
2026-04-26 18:24 52.13144 7.68223 162 ft 6 kts 122°
2026-04-26 18:25 52.13129 7.68306 162 ft 8 kts 110°
2026-04-26 18:25 52.13121 7.68412 162 ft 12 kts 78°
2026-04-26 18:25 52.13142 7.68485 162 ft 0 kts 78°
2026-04-26 18:27 52.13132 7.68501 162 ft 5 kts 184°
2026-04-26 18:27 52.13106 7.68428 162 ft 10 kts 278°
2026-04-26 18:27 52.13154 7.68377 162 ft 9 kts 340°
2026-04-26 18:28 52.13211 7.68344 162 ft 10 kts 339°
2026-04-26 18:28 52.13240 7.68251 162 ft 12 kts 256°
2026-04-26 18:28 52.13207 7.68103 162 ft 16 kts 253°
2026-04-26 18:28 52.13175 7.67943 162 ft 15 kts 251°
2026-04-26 18:29 52.13136 7.67759 162 ft 19 kts 252°
2026-04-26 18:29 52.13095 7.67566 162 ft 19 kts 250°
2026-04-26 18:29 52.13051 7.67353 162 ft 21 kts 251°
2026-04-26 18:29 52.13031 7.67169 162 ft 15 kts 290°
2026-04-26 18:30 52.13072 7.67076 162 ft 2 kts 327°
2026-04-26 18:30 52.13074 7.67075 162 ft 0 kts 326°
2026-04-26 18:33 52.13083 7.67064 161 ft 5 kts 326°
2026-04-26 18:33 52.13136 7.67040 161 ft 11 kts
2026-04-26 18:34 52.13180 7.67135 160 ft 17 kts 66°
2026-04-26 18:34 52.13274 7.67577 169 ft 59 kts 68°
2026-04-26 18:34 52.13445 7.68315 237 ft 74 kts 69°
2026-04-26 18:34 52.13588 7.69109 408 ft 74 kts 69°
2026-04-26 18:35 52.13740 7.69894 606 ft 70 kts 69°
2026-04-26 18:35 52.13702 7.70745 702 ft 83 kts 116°
2026-04-26 18:35 52.13249 7.71188 942 ft 79 kts 179°
2026-04-26 18:35 52.12728 7.70901 1090 ft 81 kts 202°
2026-04-26 18:36 52.12205 7.70439 1218 ft 88 kts 211°
2026-04-26 18:36 52.11685 7.69852 1291 ft 95 kts 221°
2026-04-26 18:36 52.11214 7.69108 1378 ft 94 kts 229°
2026-04-26 18:36 52.10775 7.68315 1464 ft 93 kts 223°
2026-04-26 18:37 52.10323 7.67594 1553 ft 94 kts 225°
2026-04-26 18:37 52.09882 7.66817 1663 ft 91 kts 229°
2026-04-26 18:37 52.09447 7.66057 1731 ft 94 kts 227°
2026-04-26 18:37 52.08969 7.65276 1746 ft 99 kts 223°
2026-04-26 18:38 52.08452 7.64533 1795 ft 100 kts 221°
2026-04-26 18:38 52.07908 7.63810 1826 ft 102 kts 216°
2026-04-26 18:38 52.07308 7.63182 1876 ft 100 kts 211°
2026-04-26 18:38 52.06705 7.62660 1936 ft 100 kts 207°
2026-04-26 18:39 52.06093 7.62133 1992 ft 99 kts 210°
2026-04-26 18:39 52.05512 7.61563 2065 ft 99 kts 208°
2026-04-26 18:39 52.04903 7.61015 2108 ft 98 kts 209°
2026-04-26 18:39 52.04299 7.60506 2127 ft 101 kts 205°
2026-04-26 18:40 52.03672 7.60064 2209 ft 97 kts 198°
2026-04-26 18:40 52.03049 7.59649 2275 ft 97 kts 205°
2026-04-26 18:40 52.02438 7.59140 2294 ft 100 kts 205°
2026-04-26 18:40 52.01811 7.58635 2387 ft 94 kts 204°
2026-04-26 18:41 52.01222 7.58131 2421 ft 100 kts 208°
2026-04-26 18:41 52.00616 7.57570 2431 ft 104 kts 208°
2026-04-26 18:41 52.00006 7.57010 2513 ft 100 kts 209°
2026-04-26 18:41 51.99398 7.56452 2561 ft 99 kts 207°
2026-04-26 18:42 51.98815 7.55939 2654 ft 97 kts 207°
2026-04-26 18:42 51.98195 7.55476 2691 ft 98 kts 195°
2026-04-26 18:42 51.97543 7.55227 2775 ft 95 kts 185°
2026-04-26 18:42 51.96862 7.55094 2772 ft 101 kts 183°
2026-04-26 18:43 51.96145 7.55012 2721 ft 105 kts 181°
2026-04-26 18:43 51.95405 7.54991 2702 ft 105 kts 178°
2026-04-26 18:43 51.94692 7.54996 2721 ft 102 kts 179°
2026-04-26 18:43 51.93981 7.54795 2715 ft 105 kts 195°
2026-04-26 18:44 51.93308 7.54318 2678 ft 107 kts 205°
2026-04-26 18:44 51.92673 7.53710 2669 ft 107 kts 215°
2026-04-26 18:44 51.92137 7.52897 2692 ft 105 kts 230°
2026-04-26 18:44 51.91726 7.51923 2733 ft 102 kts 240°
2026-04-26 18:45 51.91411 7.50980 2903 ft 90 kts 243°
2026-04-26 18:45 51.91143 7.50065 3020 ft 89 kts 249°
2026-04-26 18:45 51.90905 7.49118 3092 ft 94 kts 250°
2026-04-26 18:45 51.90633 7.48128 3143 ft 96 kts 245°
2026-04-26 18:46 51.90389 7.47073 3086 ft 105 kts 255°
2026-04-26 18:46 51.90292 7.45908 3076 ft 104 kts 273°
2026-04-26 18:46 51.90365 7.44752 3042 ft 104 kts 281°
2026-04-26 18:46 51.90472 7.43601 3052 ft 102 kts 281°
2026-04-26 18:47 51.90536 7.42468 3044 ft 104 kts 269°
2026-04-26 18:47 51.90357 7.41334 3045 ft 105 kts 250°
2026-04-26 18:47 51.90058 7.40257 3012 ft 107 kts 244°
2026-04-26 18:47 51.89704 7.39188 3010 ft 106 kts 241°
2026-04-26 18:48 51.89315 7.38164 2983 ft 107 kts 237°
2026-04-26 18:48 51.88909 7.37160 2961 ft 107 kts 236°
2026-04-26 18:48 51.88459 7.36197 2939 ft 107 kts 232°
2026-04-26 18:48 51.88005 7.35220 2896 ft 108 kts 234°
2026-04-26 18:49 51.87570 7.34234 2884 ft 108 kts 233°
2026-04-26 18:49 51.87060 7.33308 2800 ft 112 kts 228°
2026-04-26 18:49 51.86591 7.32316 2750 ft 111 kts 236°
2026-04-26 18:49 51.86182 7.31269 2709 ft 110 kts 240°
2026-04-26 18:50 51.85761 7.30215 2661 ft 111 kts 238°
2026-04-26 18:50 51.85406 7.29173 2683 ft 107 kts 243°
2026-04-26 18:50 51.85058 7.28170 2777 ft 99 kts 237°
2026-04-26 18:50 51.84674 7.27267 2878 ft 95 kts 234°
2026-04-26 18:51 51.84282 7.26437 2984 ft 93 kts 232°
2026-04-26 18:51 51.83829 7.25605 2985 ft 101 kts 226°
2026-04-26 18:51 51.83399 7.24685 2965 ft 105 kts 238°
2026-04-26 18:51 51.83004 7.23686 2975 ft 104 kts 237°
2026-04-26 18:52 51.82584 7.22751 2988 ft 105 kts 232°
2026-04-26 18:52 51.82116 7.21840 2961 ft 108 kts 229°
2026-04-26 18:52 51.81609 7.20960 3000 ft 103 kts 222°
2026-04-26 18:52 51.81061 7.20225 3005 ft 105 kts 214°
2026-04-26 18:53 51.80431 7.19627 2991 ft 106 kts 205°
2026-04-26 18:53 51.79766 7.19117 2964 ft 106 kts 202°
2026-04-26 18:53 51.79084 7.18651 2963 ft 107 kts 199°
2026-04-26 18:53 51.78381 7.18229 2926 ft 109 kts 199°
2026-04-26 18:54 51.77681 7.17750 2906 ft 108 kts 201°
2026-04-26 18:54 51.76988 7.17272 2894 ft 109 kts 201°
2026-04-26 18:54 51.76289 7.16816 2843 ft 111 kts 198°
2026-04-26 18:54 51.75556 7.16408 2789 ft 109 kts 195°
2026-04-26 18:55 51.74839 7.16054 2768 ft 108 kts 197°
2026-04-26 18:55 51.74127 7.15632 2672 ft 110 kts 198°
2026-04-26 18:55 51.73356 7.15235 2564 ft 111 kts 194°
2026-04-26 18:55 51.72633 7.14910 2538 ft 109 kts 191°
2026-04-26 18:56 51.71936 7.14626 2606 ft 100 kts 191°
2026-04-26 18:56 51.71320 7.14175 2687 ft 96 kts 206°
2026-04-26 18:56 51.70729 7.13611 2730 ft 91 kts 212°
2026-04-26 18:56 51.70177 7.12964 2717 ft 101 kts 211°
2026-04-26 18:57 51.69610 7.12387 2781 ft 99 kts 209°
2026-04-26 18:57 51.69234 7.11935 2750 ft 104 kts 218°
2026-04-26 18:57 51.68567 7.10839 2777 ft 106 kts 229°
2026-04-26 18:57 51.68107 7.09917 2758 ft 108 kts 230°
2026-04-26 18:58 51.67621 7.08943 2648 ft 115 kts 232°
2026-04-26 18:58 51.67167 7.07905 2580 ft 114 kts 236°
2026-04-26 18:58 51.66645 7.06935 2512 ft 113 kts 225°
2026-04-26 18:58 51.66116 7.06041 2548 ft 108 kts 222°
2026-04-26 18:59 51.65554 7.05242 2517 ft 110 kts 220°
2026-04-26 18:59 51.64955 7.04517 2545 ft 105 kts 202°
2026-04-26 18:59 51.64255 7.04168 2486 ft 108 kts 193°
2026-04-26 18:59 51.63500 7.03900 2452 ft 107 kts 186°
2026-04-26 19:00 51.62780 7.03765 2460 ft 105 kts 182°
2026-04-26 19:00 51.62016 7.03683 2264 ft 116 kts 183°
2026-04-26 19:00 51.61257 7.03450 2282 ft 103 kts 185°
2026-04-26 19:00 51.60577 7.03253 2421 ft 88 kts 185°
2026-04-26 19:01 51.59892 7.03074 2276 ft 104 kts 193°
2026-04-26 19:01 51.59209 7.02743 2132 ft 105 kts 197°
2026-04-26 19:01 51.58541 7.02204 2119 ft 109 kts 208°
2026-04-26 19:01 51.57897 7.01563 2143 ft 109 kts 207°
2026-04-26 19:02 51.57245 7.00997 2124 ft 109 kts 207°
2026-04-26 19:02 51.56581 7.00315 2043 ft 112 kts 216°
2026-04-26 19:02 51.56097 6.99360 2037 ft 107 kts 242°
2026-04-26 19:02 51.55879 6.98635 2041 ft 108 kts 246°
2026-04-26 19:03 51.55622 6.97142 2153 ft 103 kts 262°
2026-04-26 19:03 51.55643 6.95947 2051 ft 110 kts 285°
2026-04-26 19:03 51.55623 6.94704 1972 ft 114 kts 258°
2026-04-26 19:03 51.55337 6.93542 1926 ft 113 kts 246°
2026-04-26 19:04 51.55008 6.92391 1917 ft 111 kts 249°
2026-04-26 19:04 51.54776 6.91226 1918 ft 110 kts 259°
2026-04-26 19:04 51.54584 6.90032 1907 ft 110 kts 256°
2026-04-26 19:04 51.54369 6.88864 1954 ft 108 kts 254°
2026-04-26 19:05 51.53856 6.86609 1965 ft 109 kts 249°
2026-04-26 19:05 51.53545 6.85487 1912 ft 111 kts 242°
2026-04-26 19:05 51.53114 6.84455 1890 ft 112 kts 230°
2026-04-26 19:06 51.52563 6.83587 1891 ft 109 kts 217°
2026-04-26 19:06 51.51924 6.82944 1872 ft 109 kts 203°
2026-04-26 19:06 51.51226 6.82452 1849 ft 110 kts 201°
2026-04-26 19:06 51.50538 6.82009 1851 ft 108 kts 198°
2026-04-26 19:07 51.49850 6.81583 1869 ft 105 kts 197°
2026-04-26 19:07 51.49151 6.81224 1911 ft 103 kts 195°
2026-04-26 19:07 51.48471 6.80898 1943 ft 104 kts 193°
2026-04-26 19:07 51.47781 6.80561 1945 ft 104 kts 194°
2026-04-26 19:08 51.47086 6.80195 1949 ft 104 kts 194°
2026-04-26 19:08 51.46395 6.79852 1973 ft 106 kts 194°
2026-04-26 19:08 51.45695 6.79500 1978 ft 106 kts 193°
2026-04-26 19:08 51.44992 6.79144 1964 ft 106 kts 193°